Location: Chuathbaluk
(61.5726°N, 159.2454°W)
Time: 13:33:34
(UTC+00:00)

DELFI C3 - Pass Details

Date: 17 January 2021
Orbit: 531 x 550 km, 97.4° (Epoch: 04 March)

Event Time Altitude Azimuth Distance (km) Brightness Sun altitude
Exits shadow 06:34:44 21° 321° (NW) 1,276 ? -30.8°
Drops below altitude 10° 06:36:17 10° 333° (NNW) 1,840 ? -31.0°
Sets 06:38:32 0° 341° (NNW) 2,741 ? -31.2°
